Tracking 23762 objects as of 20-Oct-2021
HD Live streaming from Space Station
objects crossing your sky now

ARIANE 42P+3 R/B

Track ARIANE 42P+3 R/B now!


NORAD ID: 23847
Int'l Code: 1996-022B
Perigee: 324.9 km
Apogee: 27,551.8 km
Inclination: 6.8 °
Period: 480.1 minutes
Semi major axis: 20309 km
RCS: 21.539 m2 (large)
Launch date: April 20, 1996
Source: France (FR)
Launch site: FRENCH GUIANA (FRGUI)

Note: This is a ROCKET BODY
aabbcc
Your satellite tracking list
Your tracking list is empty




NASA's NSSDC Master Catalog

Two Line Element Set (TLE):
1 23847U 96022B   21292.85407271  .00000858  00000-0  45614-3 0  9997
2 23847   6.7950 291.8569 6703067 197.5074 117.8573  2.99957068253686
Source of the keplerian elements: AFSPC